Precipitable_Water
0.60 0.59 0.58 0.58 0.57 0.56 0.57 0.58 0.59 0.59 0.59 0.58 0.58 0.58 0.58 0.58 0.59 0.60 0.61 0.60 0.59 0.57 0.54 0.51 0.50 0.48 0.46 0.44 0.44 0.43 0.42 0.31 0.24 0.23 0.24 0.21 0.27 0.33 0.51 0.40 0.56 0.67 0.77 0.80 0.77 0.76 0.65 0.75 0.97 1.23 1.31 1.29 1.32 1.50 1.76 1.74 1.79 1.68 1.36 1.24 1.15 1.27 1.20 1.31 1.25 1.28 1.38 1.30 1.38 1.49 1.52 1.43 1.29 1.48 1.50 1.51 1.24 1.15 1.13 1.05 1.13 1.19 1.15 1.25 1.28 1.37 1.42 1.51
0.60 0.60 0.60 0.59 0.59 0.57 0.57 0.56 0.56 0.58 0.58 0.58 0.58 0.58 0.58 0.58 0.57 0.58 0.58 0.60 0.60 0.59 0.57 0.54 0.51 0.49 0.46 0.44 0.44 0.43 0.38 0.29 0.20 0.23 0.20 0.29 0.30 0.35 0.47 0.49 0.57 0.62 0.69 0.64 0.62 0.66 0.69 0.87 1.06 1.21 1.21 1.17 1.47 1.41 1.75 1.57 1.83 1.43 1.36 1.32 1.14 1.31 1.38 1.55 1.47 1.46 1.40 1.36 1.45 1.53 1.53 1.48 1.37 1.46 1.45 1.25 1.16 1.12 1.04 1.06 1.09 1.01 1.16 1.30 1.34 1.38 1.40 1.46
0.59 0.59 0.59 0.59 0.59 0.59 0.59 0.58 0.57 0.57 0.56 0.57 0.57 0.57 0.58 0.59 0.57 0.57 0.57 0.58 0.58 0.59 0.58 0.56 0.53 0.50 0.47 0.46 0.44 0.44 0.35 0.23 0.23 0.16 0.27 0.30 0.29 0.36 0.44 0.48 0.55 0.61 0.63 0.52 0.59 0.64 0.82 0.97 1.11 1.20 1.25 1.20 1.42 1.37 1.57 1.49 1.67 1.55 1.37 1.21 1.24 1.50 1.54 1.65 1.62 1.49 1.58 1.52 1.44 1.41 1.50 1.49 1.44 1.47 1.44 1.22 1.15 1.13 0.97 0.94 0.97 0.94 1.02 1.15 1.26 1.33 1.37 1.41
0.58 0.58 0.58 0.58 0.58 0.59 0.59 0.59 0.59 0.59 0.57 0.56 0.56 0.55 0.56 0.58 0.58 0.57 0.57 0.57 0.57 0.57 0.58 0.57 0.56 0.53 0.49 0.45 0.44 0.44 0.32 0.21 0.27 0.34 0.42 0.42 0.28 0.31 0.42 0.51 0.58 0.59 0.60 0.54 0.59 0.66 0.96 1.14 1.25 1.27 1.16 1.19 1.37 1.51 1.36 1.50 1.42 1.52 1.35 1.22 1.33 1.57 1.49 1.61 1.63 1.60 1.61 1.57 1.44 1.44 1.50 1.45 1.46 1.48 1.49 1.29 1.11 1.09 1.07 1.10 0.90 0.90 1.02 1.10 1.18 1.26 1.35 1.37
0.58 0.58 0.58 0.58 0.58 0.58 0.59 0.59 0.59 0.59 0.59 0.58 0.55 0.54 0.54 0.55 0.56 0.57 0.57 0.57 0.56 0.56 0.57 0.58 0.57 0.56 0.51 0.47 0.43 0.42 0.22 0.16 0.33 0.47 0.49 0.54 0.32 0.31 0.39 0.49 0.57 0.57 0.52 0.48 0.56 0.83 1.01 1.06 1.10 1.12 1.11 1.01 1.28 1.34 1.32 1.48 1.57 1.50 1.35 1.45 1.51 1.60 1.50 1.65 1.71 1.63 1.64 1.64 1.46 1.49 1.38 1.33 1.58 1.53 1.45 1.31 1.04 0.94 1.08 1.22 1.15 1.03 1.07 1.08 1.12 1.23 1.32 1.33
0.58 0.58 0.58 0.58 0.58 0.58 0.58 0.58 0.58 0.58 0.58 0.58 0.56 0.54 0.53 0.54 0.55 0.56 0.56 0.57 0.57 0.56 0.57 0.58 0.59 0.56 0.53 0.48 0.42 0.36 0.17 0.12 0.61 0.63 0.63 0.61 0.43 0.31 0.36 0.47 0.55 0.54 0.50 0.44 0.48 0.79 0.93 0.95 0.96 0.91 0.95 1.01 1.13 1.09 1.28 1.43 1.58 1.18 1.39 1.39 1.55 1.66 1.55 1.55 1.70 1.62 1.64 1.66 1.54 1.41 1.49 1.55 1.47 1.38 1.42 1.35 1.15 1.15 1.27 1.27 1.23 1.10 1.10 1.13 1.19 1.26 1.27 1.30
0.59 0.59 0.59 0.58 0.58 0.58 0.58 0.57 0.56 0.56 0.56 0.56 0.56 0.54 0.53 0.54 0.54 0.54 0.55 0.56 0.57 0.57 0.57 0.58 0.59 0.58 0.53 0.48 0.45 0.28 0.13 0.24 0.57 0.70 0.58 0.62 0.48 0.42 0.35 0.41 0.53 0.47 0.45 0.39 0.50 0.72 0.85 0.86 0.93 0.90 0.90 0.87 1.07 1.09 1.23 1.34 1.49 1.39 1.21 1.42 1.41 1.57 1.57 1.71 1.65 1.69 1.62 1.60 1.55 1.58 1.64 1.45 1.45 1.24 1.52 1.34 1.34 1.30 1.29 1.27 1.22 1.16 1.15 1.16 1.14 1.22 1.26 1.29
0.59 0.59 0.59 0.58 0.58 0.57 0.57 0.57 0.56 0.55 0.55 0.55 0.55 0.53 0.52 0.53 0.53 0.54 0.55 0.56 0.57 0.57 0.58 0.59 0.59 0.56 0.52 0.42 0.26 0.18 0.16 0.15 0.45 0.66 0.66 0.66 0.58 0.46 0.41 0.38 0.42 0.41 0.37 0.34 0.52 0.69 0.82 0.80 0.85 0.98 0.90 0.82 0.94 1.02 1.20 1.30 1.40 1.27 1.28 1.45 1.46 1.53 1.56 1.70 1.67 1.61 1.57 1.65 1.79 1.65 1.47 1.39 1.49 1.43 1.52 1.36 1.39 1.30 1.29 1.29 1.20 1.14 1.10 1.13 1.13 1.20 1.25 1.28
0.58 0.59 0.59 0.58 0.58 0.58 0.58 0.57 0.56 0.55 0.55 0.54 0.54 0.52 0.51 0.52 0.53 0.53 0.55 0.56 0.57 0.58 0.59 0.59 0.57 0.54 0.55 0.37 0.20 0.13 0.09 0.35 0.40 0.63 0.70 0.61 0.62 0.53 0.45 0.30 0.38 0.37 0.33 0.34 0.57 0.77 0.81 0.80 0.90 0.96 0.79 0.82 0.90 0.94 1.15 1.18 1.15 1.34 1.36 1.46 1.46 1.45 1.51 1.68 1.70 1.67 1.60 1.69 1.82 1.51 1.45 1.45 1.53 1.55 1.37 1.43 1.40 1.33 1.29 1.26 1.17 1.08 1.06 1.08 1.12 1.17 1.21 1.23
0.59 0.59 0.59 0.59 0.59 0.59 0.59 0.58 0.56 0.55 0.53 0.53 0.52 0.51 0.51 0.51 0.51 0.53 0.55 0.56 0.57 0.57 0.59 0.59 0.58 0.54 0.44 0.31 0.26 0.12 0.26 0.55 0.60 0.64 0.61 0.61 0.62 0.52 0.42 0.31 0.31 0.35 0.29 0.35 0.59 0.71 0.74 0.86 0.88 0.92 0.90 0.83 0.87 0.87 1.12 1.10 1.10 1.32 1.42 1.45 1.41 1.48 1.49 1.64 1.62 1.63 1.62 1.62 1.72 1.45 1.41 1.40 1.59 1.46 1.20 1.48 1.46 1.36 1.27 1.20 1.15 1.03 1.01 1.08 1.13 1.17 1.20 1.19
0.59 0.59 0.59 0.59 0.59 0.59 0.59 0.59 0.58 0.56 0.54 0.53 0.52 0.51 0.51 0.51 0.51 0.53 0.54 0.54 0.56 0.58 0.58 0.59 0.58 0.51 0.33 0.32 0.15 0.13 0.59 0.68 0.68 0.62 0.53 0.52 0.51 0.45 0.38 0.31 0.30 0.33 0.30 0.41 0.52 0.67 0.78 0.89 0.92 0.95 0.88 0.75 0.79 0.76 0.98 1.11 1.37 1.36 1.40 1.46 1.43 1.52 1.51 1.58 1.65 1.68 1.72 1.60 1.73 1.60 1.46 1.50 1.53 1.50 1.29 1.44 1.44 1.37 1.19 1.15 1.07 1.01 1.00 1.06 1.13 1.15 1.20 1.18
0.60 0.60 0.60 0.60 0.60 0.59 0.59 0.59 0.58 0.56 0.53 0.52 0.50 0.49 0.50 0.50 0.52 0.53 0.53 0.54 0.56 0.58 0.59 0.58 0.55 0.50 0.41 0.27 0.17 0.26 0.66 0.67 0.70 0.61 0.56 0.49 0.39 0.40 0.36 0.30 0.29 0.33 0.35 0.40 0.50 0.70 0.84 0.89 0.93 0.93 0.71 0.76 0.63 0.71 1.02 1.39 1.37 1.36 1.36 1.24 1.34 1.42 1.41 1.52 1.49 1.65 1.75 1.55 1.72 1.66 1.41 1.28 1.34 1.29 1.46 1.54 1.54 1.37 1.19 1.07 1.03 1.00 1.01 1.05 1.13 1.14 1.16 1.15
0.61 0.61 0.61 0.61 0.60 0.60 0.60 0.60 0.59 0.56 0.53 0.51 0.49 0.49 0.49 0.51 0.52 0.52 0.53 0.52 0.54 0.56 0.59 0.56 0.54 0.48 0.34 0.14 0.24 0.49 0.65 0.71 0.70 0.64 0.57 0.46 0.34 0.37 0.35 0.27 0.30 0.34 0.44 0.50 0.54 0.74 0.86 0.90 0.93 0.84 0.82 0.68 0.65 0.59 0.97 0.97 1.34 1.38 1.34 1.24 1.24 1.26 1.25 1.43 1.57 1.59 1.63 1.65 1.71 1.59 1.00 1.14 1.30 1.51 1.51 1.55 1.52 1.38 1.21 1.03 1.00 1.00 1.01 1.02 1.07 1.08 1.11 1.17
0.61 0.61 0.62 0.62 0.62 0.61 0.61 0.61 0.59 0.56 0.52 0.50 0.48 0.48 0.49 0.51 0.52 0.52 0.53 0.51 0.56 0.54 0.55 0.54 0.52 0.45 0.29 0.16 0.35 0.43 0.52 0.57 0.55 0.59 0.52 0.38 0.23 0.23 0.28 0.24 0.30 0.35 0.54 0.58 0.64 0.75 0.84 0.89 0.85 0.82 0.77 0.67 0.62 0.72 0.77 1.04 1.23 1.08 1.28 1.32 1.11 1.05 1.04 1.37 1.46 1.51 1.37 1.67 1.67 1.60 1.06 1.17 1.30 1.49 1.59 1.62 1.56 1.32 1.15 1.02 1.01 0.99 0.99 0.98 1.01 1.03 1.07 1.13
0.62 0.63 0.63 0.63 0.62 0.61 0.60 0.60 0.58 0.55 0.52 0.49 0.48 0.49 0.50 0.49 0.50 0.51 0.53 0.52 0.55 0.53 0.53 0.56 0.57 0.42 0.22 0.21 0.44 0.62 0.75 0.76 0.54 0.48 0.47 0.30 0.20 0.21 0.23 0.28 0.31 0.35 0.55 0.64 0.65 0.69 0.73 0.71 0.67 0.61 0.62 0.69 0.68 0.72 0.67 0.92 1.13 1.17 1.03 0.96 1.12 1.02 1.09 1.29 1.51 1.53 1.34 1.52 1.66 1.52 1.11 1.10 1.32 1.42 1.60 1.64 1.55 1.35 1.12 1.01 0.99 0.98 0.97 0.96 0.98 1.00 1.05 1.07
0.64 0.64 0.63 0.62 0.61 0.60 0.60 0.58 0.56 0.53 0.51 0.48 0.47 0.49 0.50 0.49 0.50 0.51 0.52 0.52 0.54 0.51 0.53 0.45 0.51 0.45 0.23 0.20 0.42 0.66 0.64 0.55 0.46 0.51 0.48 0.32 0.26 0.24 0.28 0.34 0.34 0.38 0.58 0.60 0.62 0.57 0.59 0.60 0.51 0.55 0.59 0.64 0.61 0.68 0.63 0.69 0.99 1.12 0.97 0.93 0.92 1.07 1.07 1.14 1.33 1.49 1.54 1.50 1.53 1.44 1.12 1.26 1.28 1.46 1.58 1.62 1.54 1.36 1.17 1.00 0.96 0.97 0.95 0.94 0.96 0.98 1.03 1.05
0.64 0.63 0.62 0.61 0.60 0.60 0.59 0.56 0.53 0.51 0.49 0.47 0.50 0.54 0.58 0.61 0.60 0.58 0.54 0.55 0.53 0.54 0.43 0.40 0.50 0.50 0.15 0.43 0.63 0.45 0.47 0.53 0.60 0.50 0.48 0.41 0.33 0.36 0.37 0.35 0.33 0.44 0.55 0.54 0.54 0.51 0.49 0.45 0.48 0.51 0.57 0.56 0.59 0.62 0.57 0.56 0.73 0.89 1.01 0.91 1.01 0.99 1.08 0.98 1.29 1.40 1.52 1.43 1.27 1.42 1.29 1.25 1.32 1.45 1.51 1.56 1.52 1.36 1.16 1.00 0.99 0.99 0.98 0.93 0.96 0.99 1.02 1.03
0.63 0.63 0.61 0.60 0.59 0.60 0.57 0.54 0.52 0.50 0.47 0.48 0.55 0.61 0.64 0.69 0.70 0.62 0.54 0.57 0.58 0.52 0.47 0.53 0.50 0.31 0.25 0.48 0.38 0.45 0.59 0.56 0.54 0.52 0.51 0.47 0.44 0.45 0.42 0.38 0.45 0.49 0.48 0.44 0.47 0.38 0.39 0.35 0.41 0.40 0.46 0.51 0.54 0.56 0.53 0.53 0.62 0.78 0.89 0.88 0.97 1.10 1.08 1.02 1.02 1.26 1.42 1.41 1.24 1.27 1.33 1.30 1.32 1.42 1.46 1.53 1.51 1.38 1.14 1.03 0.98 1.01 1.01 0.96 0.98 0.98 0.99 1.03
0.63 0.62 0.61 0.60 0.59 0.58 0.56 0.54 0.52 0.49 0.47 0.50 0.57 0.65 0.72 0.74 0.81 0.68 0.57 0.59 0.47 0.25 0.17 0.26 0.30 0.27 0.26 0.38 0.48 0.57 0.56 0.59 0.58 0.54 0.49 0.49 0.44 0.48 0.53 0.51 0.50 0.44 0.38 0.35 0.33 0.32 0.32 0.31 0.34 0.35 0.35 0.41 0.47 0.53 0.58 0.67 0.71 0.72 0.86 0.87 0.93 0.91 0.98 0.98 1.12 1.32 1.36 1.23 1.20 1.18 1.19 1.28 1.33 1.38 1.45 1.52 1.49 1.40 1.18 1.12 1.02 1.04 1.04 0.98 0.98 0.97 0.95 1.01
0.63 0.62 0.60 0.60 0.59 0.58 0.55 0.55 0.52 0.47 0.47 0.47 0.53 0.60 0.62 0.55 0.50 0.51 0.55 0.50 0.37 0.32 0.35 0.32 0.44 0.50 0.49 0.46 0.51 0.63 0.65 0.57 0.48 0.56 0.57 0.59 0.52 0.45 0.47 0.47 0.46 0.44 0.37 0.27 0.29 0.29 0.32 0.21 0.20 0.24 0.33 0.40 0.48 0.56 0.64 0.63 0.74 0.86 0.89 0.89 0.88 0.90 0.97 1.12 1.17 1.26 1.41 1.25 1.19 1.18 1.27 1.31 1.33 1.39 1.47 1.51 1.47 1.41 1.23 1.13 1.05 1.03 1.03 1.00 0.98 0.96 0.94 0.99
0.62 0.61 0.61 0.60 0.59 0.57 0.56 0.54 0.52 0.49 0.48 0.51 0.54 0.47 0.35 0.35 0.30 0.28 0.38 0.41 0.37 0.44 0.43 0.43 0.51 0.48 0.50 0.57 0.58 0.55 0.49 0.46 0.53 0.50 0.55 0.61 0.60 0.47 0.43 0.42 0.38 0.31 0.32 0.31 0.28 0.33 0.31 0.20 0.17 0.22 0.33 0.40 0.48 0.56 0.58 0.56 0.75 0.81 0.84 0.84 0.85 0.91 0.87 1.09 1.17 1.33 1.41 1.22 1.15 1.27 1.24 1.25 1.33 1.43 1.51 1.53 1.44 1.34 1.26 1.17 1.11 1.07 1.05 1.02 0.99 0.95 0.94 0.99
0.62 0.61 0.60 0.59 0.60 0.57 0.56 0.55 0.55 0.54 0.54 0.51 0.45 0.34 0.38 0.39 0.43 0.50 0.43 0.31 0.31 0.40 0.44 0.47 0.55 0.53 0.58 0.59 0.61 0.60 0.53 0.45 0.47 0.49 0.54 0.54 0.49 0.35 0.40 0.36 0.30 0.27 0.30 0.30 0.30 0.26 0.22 0.19 0.18 0.18 0.25 0.37 0.46 0.52 0.56 0.51 0.58 0.71 0.70 0.80 0.82 0.85 0.96 1.11 1.23 1.32 1.35 1.26 1.11 1.27 1.21 1.24 1.34 1.45 1.54 1.51 1.43 1.46 1.42 1.31 1.19 1.14 1.07 1.06 1.03 0.98 0.98 0.97
0.62 0.61 0.60 0.59 0.60 0.59 0.57 0.58 0.61 0.62 0.57 0.50 0.42 0.41 0.40 0.48 0.52 0.55 0.45 0.39 0.27 0.37 0.38 0.45 0.47 0.47 0.49 0.60 0.60 0.58 0.49 0.44 0.42 0.44 0.50 0.56 0.50 0.41 0.38 0.29 0.27 0.28 0.28 0.28 0.23 0.22 0.19 0.20 0.22 0.22 0.22 0.28 0.40 0.47 0.54 0.47 0.43 0.56 0.65 0.73 0.71 0.86 0.79 0.76 1.12 1.22 1.29 1.22 1.12 1.24 1.20 1.26 1.37 1.47 1.49 1.54 1.48 1.50 1.52 1.44 1.32 1.24 1.14 1.08 1.02 1.00 0.96 0.95
0.62 0.61 0.60 0.59 0.59 0.58 0.58 0.63 0.71 0.67 0.59 0.55 0.51 0.46 0.51 0.53 0.50 0.50 0.38 0.29 0.25 0.26 0.36 0.44 0.44 0.45 0.45 0.47 0.56 0.55 0.48 0.49 0.45 0.38 0.54 0.48 0.44 0.46 0.38 0.30 0.26 0.25 0.22 0.25 0.25 0.22 0.19 0.23 0.26 0.23 0.19 0.21 0.32 0.42 0.44 0.39 0.33 0.52 0.60 0.65 0.69 0.79 0.85 0.82 0.96 1.15 1.30 1.35 1.34 1.24 1.14 1.18 1.28 1.28 1.34 1.49 1.56 1.51 1.50 1.49 1.38 1.37 1.32 1.22 1.10 1.08 1.03 0.97
0.62 0.61 0.60 0.59 0.57 0.59 0.58 0.67 0.60 0.54 0.61 0.58 0.53 0.55 0.57 0.55 0.52 0.50 0.36 0.33 0.36 0.31 0.45 0.42 0.44 0.41 0.43 0.58 0.61 0.55 0.51 0.48 0.46 0.49 0.50 0.48 0.43 0.41 0.35 0.34 0.29 0.21 0.21 0.25 0.26 0.23 0.22 0.27 0.31 0.25 0.19 0.18 0.25 0.34 0.40 0.36 0.30 0.41 0.55 0.57 0.66 0.84 0.86 0.93 1.03 1.01 1.02 1.02 1.22 1.13 0.89 0.92 1.18 1.27 1.31 1.39 1.45 1.41 1.48 1.44 1.38 1.38 1.38 1.26 1.11 1.10 1.11 1.07
0.61 0.61 0.60 0.59 0.57 0.55 0.58 0.50 0.53 0.57 0.54 0.47 0.50 0.52 0.53 0.52 0.51 0.50 0.37 0.27 0.23 0.28 0.31 0.31 0.43 0.34 0.45 0.44 0.52 0.41 0.40 0.34 0.45 0.48 0.52 0.50 0.50 0.44 0.37 0.31 0.30 0.20 0.23 0.24 0.25 0.24 0.22 0.30 0.30 0.26 0.20 0.17 0.20 0.27 0.36 0.36 0.34 0.32 0.45 0.59 0.67 0.86 0.90 0.92 0.94 0.94 0.83 0.77 1.01 1.25 0.82 0.77 1.13 1.14 1.25 1.35 1.37 1.40 1.46 1.41 1.46 1.43 1.43 1.32 1.20 1.18 1.14 1.09
0.61 0.60 0.60 0.59 0.59 0.57 0.43 0.37 0.51 0.53 0.43 0.41 0.55 0.54 0.51 0.51 0.50 0.50 0.42 0.28 0.22 0.27 0.26 0.28 0.33 0.36 0.46 0.45 0.40 0.34 0.20 0.28 0.41 0.49 0.51 0.51 0.43 0.52 0.37 0.33 0.33 0.32 0.28 0.28 0.24 0.20 0.23 0.27 0.28 0.29 0.24 0.17 0.17 0.20 0.31 0.36 0.34 0.32 0.39 0.56 0.74 0.84 0.85 0.87 0.88 0.93 0.92 1.03 1.10 1.15 1.01 0.79 0.84 1.10 1.30 1.38 1.33 1.36 1.37 1.40 1.45 1.45 1.45 1.40 1.32 1.28 1.23 1.16
0.61 0.60 0.59 0.59 0.60 0.60 0.47 0.50 0.49 0.43 0.44 0.48 0.58 0.57 0.52 0.52 0.55 0.58 0.42 0.17 0.15 0.27 0.21 0.22 0.29 0.39 0.40 0.44 0.41 0.27 0.27 0.33 0.27 0.42 0.54 0.54 0.49 0.46 0.43 0.36 0.36 0.32 0.33 0.30 0.17 0.20 0.21 0.25 0.25 0.25 0.26 0.19 0.15 0.18 0.29 0.37 0.33 0.35 0.44 0.58 0.69 0.77 0.84 0.92 0.90 0.92 0.94 0.90 0.82 0.96 1.04 0.80 0.82 1.05 1.29 1.32 1.21 1.29 1.29 1.33 1.39 1.43 1.48 1.47 1.43 1.41 1.36 1.29
0.61 0.59 0.59 0.57 0.57 0.59 0.63 0.53 0.48 0.41 0.50 0.55 0.51 0.50 0.56 0.62 0.60 0.44 0.31 0.19 0.28 0.26 0.33 0.23 0.32 0.34 0.34 0.40 0.34 0.30 0.30 0.32 0.32 0.44 0.53 0.50 0.51 0.48 0.40 0.43 0.42 0.36 0.34 0.30 0.22 0.24 0.24 0.26 0.27 0.27 0.25 0.20 0.18 0.19 0.30 0.36 0.33 0.47 0.71 0.78 0.82 0.83 0.90 0.95 0.86 0.86 0.88 0.81 0.71 0.83 0.94 0.71 0.75 1.00 1.09 1.25 1.21 1.18 1.25 1.34 1.38 1.44 1.47 1.49 1.49 1.49 1.49 1.43
0.60 0.58 0.58 0.58 0.54 0.53 0.53 0.57 0.46 0.51 0.59 0.59 0.61 0.67 0.70 0.64 0.51 0.30 0.22 0.18 0.34 0.26 0.31 0.28 0.26 0.24 0.31 0.32 0.30 0.30 0.28 0.29 0.37 0.43 0.48 0.43 0.45 0.51 0.50 0.50 0.42 0.36 0.31 0.30 0.27 0.27 0.28 0.32 0.32 0.29 0.25 0.24 0.20 0.22 0.30 0.35 0.35 0.66 0.71 0.71 0.81 0.85 0.82 0.91 0.88 0.86 0.79 0.67 0.73 0.86 0.93 0.83 0.67 0.90 0.99 0.99 1.04 1.18 1.29 1.36 1.44 1.48 1.48 1.51 1.54 1.54 1.55 1.53
0.59 0.58 0.57 0.57 0.44 0.47 0.48 0.41 0.47 0.55 0.56 0.59 0.63 0.64 0.60 0.52 0.33 0.23 0.18 0.24 0.33 0.28 0.33 0.29 0.25 0.26 0.25 0.26 0.25 0.28 0.27 0.27 0.33 0.43 0.36 0.36 0.35 0.46 0.47 0.40 0.41 0.32 0.29 0.27 0.27 0.29 0.29 0.32 0.30 0.30 0.31 0.31 0.26 0.24 0.31 0.37 0.44 0.57 0.64 0.67 0.74 0.76 0.80 0.78 0.80 0.83 0.64 0.57 0.71 0.87 0.89 0.88 0.63 0.81 1.02 1.12 1.24 1.29 1.27 1.25 1.33 1.38 1.43 1.48 1.53 1.56 1.60 1.64
0.56 0.57 0.57 0.53 0.51 0.56 0.39 0.36 0.48 0.53 0.53 0.61 0.66 0.55 0.46 0.26 0.30 0.21 0.20 0.34 0.23 0.25 0.27 0.26 0.26 0.25 0.23 0.24 0.24 0.24 0.23 0.28 0.35 0.33 0.31 0.28 0.28 0.32 0.37 0.33 0.31 0.25 0.23 0.25 0.25 0.32 0.28 0.27 0.32 0.33 0.36 0.39 0.32 0.28 0.31 0.37 0.49 0.51 0.55 0.65 0.56 0.56 0.57 0.47 0.59 0.54 0.55 0.52 0.64 0.80 0.88 0.78 0.74 0.89 1.01 1.11 1.21 1.28 1.34 1.34 1.34 1.37 1.44 1.52 1.57 1.56 1.61 1.70
0.54 0.54 0.56 0.54 0.55 0.50 0.50 0.51 0.56 0.61 0.66 0.66 0.59 0.53 0.36 0.26 0.20 0.25 0.26 0.28 0.22 0.27 0.24 0.28 0.24 0.25 0.23 0.22 0.22 0.23 0.27 0.26 0.28 0.28 0.27 0.28 0.27 0.27 0.34 0.34 0.32 0.31 0.25 0.30 0.29 0.26 0.27 0.31 0.31 0.35 0.34 0.41 0.41 0.29 0.33 0.32 0.46 0.47 0.43 0.56 0.49 0.46 0.43 0.37 0.45 0.54 0.58 0.61 0.74 0.76 0.89 0.74 0.86 0.97 1.13 1.11 1.23 1.32 1.38 1.45 1.47 1.48 1.52 1.55 1.57 1.61 1.64 1.72
0.53 0.54 0.50 0.52 0.51 0.50 0.52 0.59 0.64 0.72 0.71 0.67 0.54 0.40 0.35 0.24 0.21 0.33 0.28 0.28 0.26 0.28 0.26 0.25 0.25 0.24 0.22 0.20 0.20 0.22 0.20 0.25 0.27 0.27 0.26 0.25 0.24 0.21 0.25 0.30 0.33 0.33 0.34 0.31 0.26 0.28 0.23 0.23 0.27 0.34 0.28 0.43 0.41 0.35 0.40 0.38 0.43 0.44 0.47 0.44 0.45 0.46 0.40 0.35 0.40 0.39 0.47 0.55 0.69 0.86 0.72 0.68 0.67 0.82 1.19 1.24 1.29 1.29 1.34 1.47 1.59 1.64 1.62 1.64 1.70 1.73 1.70 1.74
0.52 0.51 0.53 0.51 0.53 0.51 0.53 0.56 0.62 0.72 0.72 0.60 0.45 0.35 0.25 0.24 0.27 0.24 0.25 0.25 0.26 0.26 0.25 0.26 0.22 0.21 0.20 0.21 0.23 0.24 0.24 0.23 0.28 0.27 0.24 0.22 0.20 0.20 0.23 0.28 0.34 0.37 0.34 0.29 0.30 0.30 0.28 0.27 0.36 0.41 0.41 0.40 0.41 0.40 0.44 0.46 0.44 0.44 0.46 0.49 0.44 0.43 0.50 0.41 0.45 0.47 0.51 0.61 0.61 0.72 0.72 0.87 0.83 1.16 1.26 1.30 1.31 1.32 1.40 1.45 1.53 1.54 1.57 1.59 1.61 1.60 1.67 1.75
0.47 0.46 0.54 0.43 0.45 0.46 0.56 0.61 0.70 0.73 0.65 0.52 0.38 0.29 0.26 0.28 0.26 0.30 0.25 0.29 0.27 0.25 0.24 0.24 0.22 0.21 0.21 0.22 0.23 0.23 0.27 0.25 0.28 0.27 0.25 0.24 0.26 0.26 0.32 0.35 0.35 0.36 0.34 0.30 0.33 0.27 0.30 0.28 0.41 0.43 0.45 0.41 0.44 0.44 0.44 0.48 0.35 0.41 0.42 0.39 0.42 0.48 0.48 0.42 0.45 0.57 0.61 0.62 0.61 0.83 0.77 0.90 1.08 1.12 1.19 1.22 1.24 1.28 1.38 1.42 1.45 1.48 1.51 1.47 1.46 1.59 1.68 1.72
0.41 0.49 0.42 0.43 0.44 0.49 0.56 0.65 0.71 0.67 0.60 0.47 0.36 0.28 0.32 0.31 0.31 0.29 0.29 0.29 0.29 0.28 0.25 0.20 0.20 0.22 0.21 0.21 0.23 0.25 0.28 0.28 0.29 0.26 0.23 0.26 0.25 0.33 0.33 0.34 0.37 0.35 0.36 0.34 0.31 0.35 0.27 0.30 0.36 0.38 0.35 0.44 0.48 0.48 0.48 0.46 0.44 0.42 0.36 0.40 0.46 0.48 0.48 0.43 0.37 0.46 0.47 0.44 0.58 0.76 0.70 0.74 0.78 0.68 1.12 1.13 1.14 1.23 1.30 1.32 1.40 1.48 1.52 1.45 1.47 1.54 1.62 1.69
0.45 0.49 0.52 0.46 0.44 0.51 0.57 0.67 0.66 0.61 0.51 0.40 0.32 0.32 0.36 0.29 0.29 0.28 0.30 0.32 0.32 0.31 0.26 0.23 0.22 0.26 0.22 0.25 0.26 0.28 0.31 0.29 0.29 0.28 0.27 0.28 0.27 0.38 0.33 0.32 0.36 0.38 0.37 0.39 0.33 0.33 0.33 0.29 0.35 0.40 0.41 0.44 0.45 0.46 0.42 0.44 0.44 0.40 0.38 0.46 0.38 0.34 0.36 0.47 0.38 0.32 0.40 0.42 0.52 0.66 0.74 0.78 0.79 0.78 0.98 1.00 1.08 1.17 1.22 1.30 1.34 1.39 1.46 1.48 1.51 1.55 1.59 1.65
0.54 0.53 0.45 0.43 0.55 0.55 0.56 0.60 0.59 0.54 0.43 0.33 0.30 0.27 0.31 0.29 0.28 0.29 0.31 0.33 0.34 0.32 0.27 0.27 0.24 0.25 0.27 0.26 0.30 0.30 0.30 0.31 0.31 0.29 0.28 0.30 0.27 0.35 0.33 0.34 0.33 0.39 0.39 0.39 0.35 0.36 0.34 0.29 0.32 0.39 0.38 0.41 0.40 0.42 0.34 0.35 0.38 0.42 0.42 0.39 0.42 0.39 0.36 0.40 0.38 0.37 0.37 0.45 0.47 0.56 0.68 0.64 0.83 0.88 1.00 1.04 1.16 1.20 1.21 1.22 1.27 1.37 1.43 1.48 1.54 1.56 1.56 1.59
0.47 0.47 0.39 0.49 0.53 0.51 0.60 0.58 0.49 0.44 0.37 0.30 0.30 0.29 0.30 0.26 0.28 0.30 0.32 0.33 0.32 0.32 0.30 0.29 0.28 0.26 0.27 0.29 0.32 0.28 0.32 0.33 0.33 0.31 0.32 0.34 0.32 0.35 0.32 0.35 0.34 0.36 0.39 0.41 0.38 0.39 0.32 0.35 0.28 0.32 0.35 0.39 0.32 0.37 0.36 0.35 0.32 0.34 0.35 0.33 0.36 0.38 0.41 0.39 0.40 0.36 0.35 0.39 0.42 0.45 0.50 0.65 0.85 1.06 1.07 1.11 1.19 1.24 1.25 1.21 1.26 1.34 1.39 1.46 1.52 1.55 1.55 1.58
0.58 0.47 0.38 0.48 0.43 0.51 0.56 0.52 0.40 0.34 0.34 0.33 0.32 0.26 0.29 0.27 0.28 0.29 0.32 0.32 0.32 0.35 0.35 0.31 0.31 0.28 0.28 0.28 0.28 0.32 0.29 0.33 0.32 0.29 0.31 0.33 0.31 0.28 0.34 0.33 0.35 0.34 0.38 0.38 0.38 0.38 0.33 0.34 0.30 0.31 0.29 0.30 0.31 0.39 0.41 0.39 0.37 0.34 0.32 0.30 0.34 0.34 0.35 0.33 0.31 0.50 0.48 0.40 0.40 0.41 0.42 0.65 0.91 1.13 1.15 1.14 1.18 1.25 1.32 1.28 1.28 1.32 1.37 1.43 1.50 1.55 1.58 1.59
0.51 0.37 0.32 0.45 0.47 0.52 0.47 0.38 0.34 0.35 0.33 0.28 0.23 0.27 0.27 0.32 0.29 0.27 0.30 0.32 0.32 0.32 0.36 0.36 0.34 0.33 0.32 0.31 0.33 0.33 0.32 0.32 0.36 0.31 0.30 0.31 0.33 0.33 0.34 0.36 0.34 0.36 0.34 0.33 0.35 0.41 0.39 0.38 0.34 0.30 0.29 0.30 0.33 0.37 0.41 0.41 0.40 0.35 0.32 0.31 0.34 0.36 0.36 0.34 0.30 0.42 0.48 0.49 0.52 0.47 0.43 0.57 1.02 1.14 1.20 1.20 1.21 1.26 1.36 1.33 1.28 1.31 1.36 1.43 1.50 1.55 1.60 1.63
0.44 0.37 0.45 0.49 0.48 0.47 0.40 0.33 0.33 0.33 0.29 0.28 0.30 0.30 0.29 0.29 0.29 0.30 0.31 0.32 0.31 0.31 0.33 0.35 0.35 0.35 0.35 0.34 0.35 0.36 0.35 0.33 0.35 0.32 0.30 0.32 0.34 0.36 0.37 0.36 0.36 0.33 0.35 0.36 0.39 0.40 0.46 0.37 0.33 0.32 0.35 0.33 0.33 0.35 0.37 0.40 0.40 0.36 0.34 0.34 0.34 0.34 0.37 0.36 0.36 0.46 0.42 0.51 0.44 0.47 0.42 0.62 1.00 1.17 1.19 1.20 1.25 1.30 1.33 1.34 1.32 1.26 1.34 1.42 1.47 1.51 1.54 1.57
0.48 0.43 0.41 0.47 0.51 0.45 0.36 0.28 0.28 0.29 0.28 0.28 0.27 0.27 0.30 0.30 0.30 0.29 0.31 0.33 0.33 0.33 0.32 0.34 0.39 0.39 0.36 0.38 0.38 0.37 0.37 0.31 0.34 0.33 0.30 0.32 0.33 0.38 0.36 0.35 0.36 0.34 0.34 0.35 0.35 0.41 0.36 0.39 0.39 0.28 0.25 0.25 0.26 0.28 0.29 0.35 0.38 0.33 0.32 0.33 0.35 0.39 0.42 0.49 0.49 0.54 0.39 0.49 0.49 0.39 0.33 0.55 0.92 1.13 1.17 1.17 1.22 1.24 1.23 1.28 1.25 1.19 1.23 1.29 1.37 1.44 1.50 1.54
0.54 0.52 0.47 0.46 0.50 0.44 0.35 0.34 0.31 0.31 0.28 0.25 0.26 0.24 0.25 0.26 0.26 0.29 0.29 0.30 0.35 0.34 0.33 0.34 0.38 0.39 0.40 0.40 0.39 0.40 0.40 0.37 0.33 0.34 0.35 0.33 0.31 0.36 0.35 0.33 0.35 0.35 0.38 0.44 0.43 0.49 0.39 0.39 0.36 0.25 0.20 0.18 0.18 0.19 0.21 0.26 0.32 0.34 0.33 0.33 0.33 0.35 0.38 0.41 0.36 0.44 0.35 0.52 0.57 0.47 0.50 0.71 0.89 1.01 1.07 1.13 1.15 1.17 1.21 1.23 1.25 1.26 1.22 1.21 1.27 1.34 1.41 1.48
0.51 0.37 0.43 0.46 0.43 0.35 0.32 0.33 0.29 0.30 0.28 0.27 0.21 0.20 0.26 0.23 0.25 0.27 0.26 0.27 0.33 0.34 0.33 0.33 0.37 0.38 0.37 0.37 0.37 0.39 0.39 0.42 0.38 0.33 0.33 0.32 0.32 0.32 0.32 0.33 0.35 0.35 0.37 0.42 0.40 0.45 0.42 0.43 0.40 0.34 0.28 0.24 0.25 0.26 0.30 0.35 0.33 0.30 0.31 0.31 0.32 0.38 0.41 0.41 0.44 0.40 0.34 0.50 0.52 0.59 0.59 0.67 0.74 0.87 0.96 1.03 1.13 1.10 1.12 1.16 1.17 1.20 1.23 1.25 1.26 1.30 1.37 1.43
0.60 0.43 0.40 0.34 0.43 0.35 0.29 0.30 0.28 0.28 0.29 0.30 0.27 0.27 0.24 0.24 0.23 0.24 0.26 0.23 0.28 0.31 0.32 0.31 0.32 0.32 0.34 0.36 0.37 0.37 0.41 0.38 0.41 0.35 0.34 0.33 0.31 0.31 0.32 0.32 0.34 0.36 0.36 0.37 0.41 0.44 0.43 0.37 0.39 0.36 0.34 0.33 0.32 0.28 0.29 0.31 0.30 0.31 0.30 0.29 0.31 0.35 0.38 0.39 0.35 0.36 0.53 0.44 0.44 0.64 0.67 0.60 0.71 0.83 0.90 0.97 1.10 1.14 1.16 1.16 1.17 1.18 1.19 1.18 1.20 1.24 1.31 1.37
0.40 0.47 0.52 0.52 0.42 0.29 0.28 0.26 0.25 0.25 0.25 0.28 0.26 0.28 0.25 0.24 0.23 0.22 0.26 0.25 0.26 0.27 0.31 0.30 0.33 0.35 0.36 0.35 0.37 0.35 0.38 0.39 0.40 0.37 0.40 0.37 0.34 0.32 0.32 0.35 0.33 0.35 0.35 0.35 0.40 0.39 0.41 0.35 0.39 0.38 0.35 0.33 0.32 0.30 0.29 0.30 0.31 0.31 0.31 0.30 0.29 0.33 0.35 0.32 0.36 0.46 0.53 0.41 0.40 0.59 0.66 0.58 0.70 0.80 0.90 0.98 1.05 1.08 1.11 1.13 1.16 1.18 1.18 1.17 1.16 1.15 1.19 1.25
0.55 0.53 0.51 0.61 0.39 0.38 0.32 0.26 0.26 0.23 0.24 0.25 0.27 0.25 0.23 0.23 0.22 0.25 0.27 0.24 0.23 0.29 0.27 0.27 0.30 0.34 0.36 0.37 0.38 0.36 0.38 0.35 0.35 0.42 0.40 0.38 0.35 0.36 0.32 0.35 0.35 0.37 0.34 0.33 0.36 0.37 0.37 0.36 0.37 0.38 0.36 0.34 0.32 0.30 0.29 0.28 0.30 0.31 0.30 0.30 0.31 0.31 0.32 0.36 0.41 0.49 0.50 0.46 0.55 0.61 0.65 0.64 0.73 0.80 0.89 0.96 1.06 1.08 1.13 1.16 1.14 1.07 1.04 1.07 1.09 1.09 1.11 1.15
0.41 0.37 0.35 0.54 0.49 0.41 0.33 0.28 0.25 0.23 0.25 0.26 0.22 0.23 0.23 0.22 0.21 0.21 0.26 0.25 0.23 0.26 0.32 0.30 0.30 0.34 0.37 0.38 0.38 0.37 0.40 0.43 0.44 0.38 0.41 0.39 0.37 0.38 0.37 0.36 0.37 0.38 0.34 0.31 0.33 0.36 0.33 0.34 0.37 0.35 0.35 0.33 0.32 0.30 0.29 0.28 0.28 0.29 0.30 0.30 0.33 0.39 0.41 0.45 0.47 0.51 0.51 0.55 0.61 0.63 0.64 0.67 0.83 0.90 0.90 0.96 1.05 1.09 1.10 1.07 1.05 1.01 0.98 0.98 1.02 1.07 1.09 1.11
0.55 0.58 0.61 0.49 0.34 0.34 0.32 0.29 0.31 0.29 0.30 0.28 0.22 0.23 0.25 0.24 0.21 0.21 0.22 0.29 0.27 0.26 0.29 0.30 0.34 0.34 0.36 0.35 0.34 0.33 0.36 0.40 0.41 0.41 0.42 0.41 0.35 0.38 0.35 0.37 0.38 0.36 0.36 0.34 0.34 0.34 0.31 0.31 0.37 0.35 0.29 0.32 0.33 0.31 0.29 0.28 0.27 0.26 0.28 0.28 0.28 0.30 0.36 0.43 0.45 0.49 0.46 0.52 0.59 0.62 0.59 0.63 0.79 0.87 0.88 0.92 0.95 0.96 0.94 0.97 0.98 0.96 0.97 0.95 0.93 1.00 1.06 1.08
0.53 0.67 0.71 0.59 0.38 0.40 0.37 0.35 0.35 0.32 0.29 0.32 0.30 0.27 0.25 0.26 0.27 0.26 0.22 0.26 0.29 0.33 0.34 0.31 0.31 0.32 0.32 0.32 0.33 0.35 0.36 0.38 0.40 0.42 0.42 0.42 0.41 0.40 0.39 0.38 0.35 0.35 0.36 0.34 0.36 0.36 0.33 0.29 0.30 0.31 0.27 0.27 0.32 0.33 0.30 0.28 0.26 0.22 0.23 0.26 0.27 0.28 0.31 0.44 0.54 0.58 0.53 0.58 0.55 0.52 0.56 0.72 0.77 0.83 0.80 0.83 0.85 0.89 0.92 0.93 0.91 0.95 0.97 0.95 0.93 0.94 1.03 1.06
Wind_Speed
16 16 15 15 15 15 15 15 15 15 15 14 14 14 14 13 13 13 13 12 12 12 12 12 12 13 13 12 12 13 13 13 14 15 16 15 15 16 15 16 18 19 18 17 16 15 14 14 13 12 10 9 6 5 4 2 1 0 0 1 4 7 8 10 11 13 14 14 14 14 14 14 13 12 10 10 12 14 13 13 13 13 14 16 19 21 22 21
17 16 16 16 16 16 16 16 16 16 16 15 15 15 15 14 14 14 14 13 13 13 13 12 12 13 13 13 13 13 13 14 15 16 17 17 16 17 17 16 18 19 18 18 18 17 15 14 14 12 10 9 7 6 4 2 2 1 1 2 5 7 8 9 10 12 13 15 15 15 15 14 14 13 10 11 13 14 13 14 14 15 17 19 20 21 21 21
17 17 17 17 17 17 16 16 16 16 16 16 16 16 15 15 15 15 15 14 14 13 13 13 13 13 13 13 13 13 13 13 15 15 16 17 18 18 18 17 18 20 19 18 19 18 17 15 14 13 11 9 7 7 5 3 1 1 2 2 5 7 8 9 10 11 13 17 16 15 16 14 14 13 11 13 13 13 13 14 15 17 19 20 20 20 21 21
18 18 18 18 18 18 17 17 17 17 17 17 17 16 16 16 16 16 15 15 15 14 14 14 13 13 13 13 13 13 13 12 13 14 13 15 18 19 19 17 17 20 20 18 18 19 17 15 14 13 12 9 7 7 5 4 2 1 3 3 5 7 8 9 10 11 13 17 18 16 16 15 13 12 13 14 12 11 12 14 16 18 20 20 20 20 20 20
18 19 19 19 19 19 18 18 18 18 18 17 17 17 17 16 16 16 16 16 16 15 15 14 14 14 13 13 13 12 12 12 13 14 13 14 17 19 20 18 18 19 19 19 19 18 17 15 14 13 12 9 8 7 5 5 3 2 3 3 6 7 7 9 10 13 13 15 17 16 16 15 13 13 15 14 10 10 12 15 17 18 19 20 20 20 19 20
19 19 20 20 20 20 19 19 18 18 18 18 18 17 17 16 16 16 16 16 16 16 16 15 15 14 14 13 13 13 13 13 14 14 13 14 16 18 19 19 19 19 19 20 19 18 18 17 15 13 12 10 9 8 6 7 5 3 3 3 5 7 7 10 11 13 13 12 15 16 15 15 14 13 14 12 9 10 13 16 17 18 19 20 20 19 19 19
20 20 20 20 20 20 20 20 19 18 18 18 18 18 17 17 16 16 16 16 16 16 16 16 15 15 14 14 13 13 13 15 15 15 14 14 16 17 18 19 19 19 20 21 20 19 18 18 16 14 12 10 10 10 8 9 7 3 4 4 5 6 7 9 10 12 13 12 14 16 15 14 14 13 13 11 9 12 16 17 18 19 19 19 19 19 19 19
21 21 21 20 20 20 20 20 20 19 19 18 18 18 18 17 17 17 16 16 16 16 16 16 16 15 14 14 14 13 14 16 16 15 15 15 16 17 18 19 19 19 20 21 22 20 19 18 17 14 12 10 10 10 9 9 8 5 5 6 5 6 7 9 10 11 13 13 14 16 14 13 14 14 13 11 12 16 18 18 18 19 19 18 19 19 19 18
23 23 23 22 21 21 20 20 20 20 19 19 18 18 18 18 17 17 16 16 16 16 16 16 17 16 15 15 14 13 15 16 16 15 15 15 17 18 18 18 20 20 20 21 22 21 19 18 17 15 12 12 11 11 11 9 8 7 6 7 6 6 7 9 11 11 13 13 14 15 13 13 15 15 11 10 14 19 19 18 18 19 19 18 19 19 19 18
24 24 23 23 22 21 21 20 20 20 20 19 18 18 18 18 18 17 17 16 16 16 16 16 17 17 16 16 15 14 16 15 15 16 16 16 17 18 19 19 20 21 20 21 22 21 20 19 16 14 13 13 11 12 14 10 8 8 7 7 7 7 7 9 11 11 13 13 14 15 13 14 15 13 11 11 15 19 19 18 18 19 18 18 18 18 18 18
24 24 24 23 23 22 21 21 20 20 20 19 18 18 18 18 18 17 17 16 16 16 16 16 17 17 17 17 16 16 16 15 15 16 16 17 18 19 20 20 21 22 21 21 22 22 21 19 16 14 13 12 10 12 13 10 8 10 9 6 6 7 6 6 8 10 12 12 12 14 13 13 12 11 11 12 16 19 18 17 18 18 17 17 18 17 16 17
25 24 24 24 23 23 22 21 20 20 19 19 18 18 18 18 17 17 17 16 16 15 15 16 17 17 17 17 19 18 16 15 15 16 16 17 18 20 20 20 22 22 22 21 22 23 22 20 17 16 14 12 10 10 11 10 9 10 10 7 5 6 5 4 5 9 11 11 13 13 12 10 11 11 12 13 16 18 18 17 17 17 16 17 17 16 15 16
25 24 24 24 23 23 22 21 20 19 19 19 18 18 17 17 17 17 16 15 15 15 15 16 16 17 17 18 20 19 18 17 15 16 17 16 18 20 20 21 22 23 22 21 21 22 22 20 19 18 16 13 12 11 10 11 11 10 8 7 7 6 5 4 5 8 9 10 11 11 11 11 11 11 13 14 15 17 17 16 17 16 16 16 16 16 15 15
25 24 24 24 23 23 22 21 20 19 18 18 18 17 17 17 16 16 15 15 14 14 15 15 16 16 17 19 19 18 19 19 17 18 18 16 18 19 20 21 22 23 22 21 21 21 21 19 19 19 17 15 13 12 11 10 11 10 7 7 8 8 7 5 5 8 8 8 9 10 11 12 13 13 14 15 14 16 17 16 17 16 16 16 16 16 15 15
24 24 24 23 23 22 21 20 19 18 17 17 17 17 16 16 15 15 14 14 13 14 14 14 15 16 17 18 18 18 18 18 19 20 18 17 19 19 20 22 22 23 22 21 21 21 21 19 18 19 17 16 14 13 12 10 11 11 9 9 9 8 8 6 6 7 8 8 8 9 12 13 14 14 15 15 13 15 17 16 17 17 16 16 16 16 15 16
24 23 23 23 22 21 21 19 18 17 16 16 16 16 15 14 14 13 13 13 12 13 13 14 15 16 16 17 17 17 18 19 19 21 19 17 19 19 20 21 22 23 22 21 21 21 21 19 18 18 18 17 16 15 13 11 12 12 10 11 11 10 9 7 7 6 7 8 8 9 13 14 14 15 15 15 14 15 17 17 17 17 17 17 16 15 16 16
23 23 22 22 21 21 20 18 17 16 15 15 15 14 13 13 12 12 12 12 12 13 14 14 14 15 16 16 16 17 19 19 19 21 21 18 19 19 19 20 21 22 22 21 21 21 20 20 19 18 18 18 17 16 14 13 13 13 11 11 12 11 10 9 8 7 7 8 9 10 13 14 14 15 15 14 13 15 17 17 18 18 17 17 16 15 16 16
23 22 22 21 21 20 19 17 16 15 14 14 14 13 13 12 12 12 12 12 12 13 13 14 14 14 15 16 16 17 19 19 19 21 21 20 20 20 19 20 20 21 21 20 21 21 20 19 18 18 18 18 18 16 15 14 13 15 14 12 12 11 11 10 10 9 9 8 10 12 13 14 15 15 16 14 13 14 17 17 18 18 17 17 16 15 16 16
22 22 22 21 20 19 18 16 14 13 13 12 12 11 11 11 11 12 12 12 13 13 13 14 15 14 14 16 17 17 18 19 20 20 22 22 21 21 20 20 20 21 21 20 20 20 20 18 19 19 19 19 19 18 17 14 12 15 16 14 13 11 10 11 10 10 11 10 11 13 13 14 15 16 16 15 13 13 16 18 18 19 18 16 17 16 16 17
22 21 21 20 19 18 16 15 13 12 11 10 9 9 9 9 9 11 12 13 14 14 14 15 16 16 15 15 16 16 17 19 19 20 22 22 21 21 21 20 20 20 20 20 19 19 19 19 20 21 21 21 19 18 18 15 12 13 14 15 14 12 10 10 10 11 12 11 11 12 12 14 15 16 15 15 15 13 15 18 18 19 18 16 17 17 16 17
21 21 20 19 18 17 15 14 12 11 10 8 8 8 8 8 8 9 11 13 15 15 16 16 17 17 17 16 16 16 16 18 19 19 21 21 21 21 21 20 19 19 20 20 19 19 19 19 21 22 22 22 20 18 18 16 14 13 13 14 13 11 10 9 9 10 9 10 12 12 12 14 14 15 15 14 15 14 14 17 19 19 18 16 17 18 16 16
20 20 19 18 17 16 15 13 12 11 9 8 7 7 8 8 8 9 10 11 13 14 15 16 16 17 18 18 18 17 17 17 19 20 21 21 21 21 21 20 19 19 20 19 19 18 19 19 20 21 22 23 21 19 18 17 16 15 13 13 13 12 10 8 9 9 8 9 12 14 13 14 14 15 16 15 14 14 14 15 18 20 18 16 17 17 17 17
19 19 19 18 17 15 14 13 11 9 8 7 7 7 7 7 7 9 8 9 12 13 14 15 15 15 15 16 17 18 18 17 18 20 21 21 21 22 21 20 20 20 20 20 19 19 19 19 20 21 21 24 24 21 19 17 17 16 15 14 14 14 12 10 11 11 9 9 12 14 13 13 14 15 17 16 14 14 15 14 15 18 18 17 18 17 17 18
18 18 18 17 16 14 13 12 9 7 7 7 8 7 7 7 7 7 7 7 9 11 13 15 14 14 14 14 16 18 17 16 17 19 21 22 21 21 21 20 20 20 20 21 20 19 19 19 20 20 20 24 25 24 21 18 17 17 17 15 14 15 14 11 11 11 9 9 11 13 12 13 16 17 18 17 15 15 15 14 14 15 16 16 17 17 17 19
18 18 18 17 16 14 13 10 7 7 8 7 7 7 7 6 6 5 5 5 7 10 12 13 14 14 14 13 15 16 15 15 17 19 21 22 22 20 20 20 20 20 21 21 20 20 20 20 19 19 20 23 25 24 22 19 17 17 18 17 16 17 14 12 12 12 10 9 12 15 11 11 15 18 19 18 17 17 16 15 15 15 15 16 17 17 17 18
18 18 18 17 15 14 11 7 7 9 9 7 6 6 5 3 3 3 3 3 5 8 10 12 12 12 13 14 15 14 12 14 17 19 20 21 23 20 19 20 19 19 20 20 19 19 19 20 20 20 20 22 24 24 23 21 18 17 18 17 17 17 16 15 14 13 12 10 12 15 11 9 13 17 19 19 19 19 17 17 17 16 16 16 17 17 17 17
17 17 17 16 15 13 9 7 8 9 7 6 5 5 4 1 1 1 3 3 3 6 8 10 10 10 12 15 14 12 12 14 15 18 19 20 22 21 19 19 18 18 18 18 18 19 19 20 21 21 20 20 22 24 23 21 18 17 17 18 19 19 18 17 15 13 12 10 12 14 11 9 11 14 17 20 20 20 19 19 18 18 17 16 17 17 17 17
16 16 16 15 14 12 9 8 9 7 5 6 5 4 2 1 1 1 3 3 3 4 7 9 9 9 12 13 13 12 12 13 13 16 19 20 22 21 20 20 19 18 18 19 20 19 18 20 21 21 20 20 22 23 23 22 19 17 16 19 20 19 18 18 16 13 10 10 13 14 11 9 10 12 15 18 21 22 21 21 20 20 19 17 17 17 16 16
16 16 15 14 13 11 8 7 7 6 5 5 4 2 2 2 2 2 3 4 3 4 7 8 8 9 10 11 13 13 12 11 12 16 17 19 21 21 20 20 18 18 19 20 20 19 19 20 20 20 20 20 21 23 24 22 19 16 16 18 18 16 16 16 15 14 10 9 14 16 13 10 10 12 14 16 20 23 22 22 21 21 21 19 17 17 17 16
15 15 14 13 12 10 8 7 5 4 5 5 3 2 2 2 3 3 3 3 2 4 6 7 7 8 9 10 12 13 13 11 12 15 15 16 20 20 19 19 18 18 18 19 20 20 19 19 19 20 20 20 20 22 24 22 19 17 18 18 16 14 15 15 14 14 11 10 15 18 15 11 9 12 15 14 16 20 21 21 22 22 22 21 19 18 18 16
14 14 13 11 10 9 7 6 5 5 4 4 3 3 3 3 4 4 3 3 2 2 4 6 7 8 9 12 12 12 12 12 13 15 14 14 17 19 18 18 17 16 16 17 18 18 18 19 19 20 20 20 20 22 23 22 20 18 19 19 17 15 14 14 13 13 12 12 14 18 16 12 10 12 15 14 13 16 19 20 21 22 23 23 21 20 19 17
13 13 11 9 9 8 6 5 6 6 5 4 4 3 4 4 4 4 3 2 1 1 4 6 6 7 10 12 12 11 11 11 13 14 14 13 15 18 19 18 17 15 15 17 17 16 17 20 20 19 20 19 20 22 22 21 20 18 19 21 18 15 14 14 14 13 13 14 14 17 16 12 11 12 14 16 14 14 16 18 20 22 23 23 23 22 21 19
13 12 9 8 7 7 6 5 6 6 5 5 5 5 6 5 4 2 2 2 1 1 3 5 5 6 10 12 12 12 11 11 11 12 12 13 14 16 18 18 17 15 15 16 15 15 16 18 19 19 20 19 20 22 22 21 22 20 21 22 19 17 15 15 16 14 14 14 14 17 16 12 12 11 13 15 15 14 14 16 18 20 21 22 21 20 20 20
12 10 8 6 6 6 5 5 5 5 5 5 5 6 6 5 3 2 3 2 1 2 1 3 3 6 11 13 12 11 11 10 10 11 11 11 12 14 16 16 17 16 15 15 15 16 17 17 19 20 20 20 20 22 23 22 23 22 21 21 20 19 17 16 17 15 13 12 13 15 15 13 13 13 13 14 14 14 13 14 15 17 19 19 19 19 19 19
11 8 6 6 6 5 4 4 4 4 5 6 6 6 6 4 2 3 3 2 2 3 0 3 4 7 10 11 10 10 10 10 10 10 10 10 10 13 15 14 15 16 15 15 15 15 18 17 18 20 20 21 21 21 22 21 21 22 21 20 19 20 18 17 18 16 13 12 12 13 13 13 14 15 13 12 13 13 14 13 14 15 17 17 19 19 18 18
9 7 5 5 5 4 3 4 4 4 4 6 6 5 3 2 2 2 1 1 3 2 1 2 4 7 8 8 8 8 10 10 10 10 10 11 10 10 13 13 13 15 15 16 15 14 16 17 17 18 20 21 22 21 20 21 21 20 20 21 20 18 18 17 16 15 13 12 13 13 13 13 14 15 13 12 13 14 15 14 13 14 15 15 17 18 17 17
8 7 5 5 4 3 3 3 4 4 4 5 5 3 2 2 1 1 1 1 3 1 2 2 3 6 6 6 5 5 7 9 9 9 9 11 11 9 12 13 13 14 15 15 15 15 15 16 17 19 19 20 21 19 19 21 21 19 19 22 20 17 18 17 15 14 14 13 14 13 13 16 15 14 14 14 15 16 16 15 14 14 13 13 14 16 16 16
7 6 5 4 3 3 3 3 3 3 4 5 4 3 3 2 2 1 1 1 2 1 2 2 4 6 5 5 5 4 5 6 7 8 8 9 12 11 11 14 13 12 14 14 14 16 16 15 16 18 18 19 19 19 20 20 20 20 20 20 19 18 18 16 15 15 14 15 15 12 13 16 15 15 16 16 16 17 16 15 15 14 13 13 14 14 14 14
6 5 3 2 3 2 3 3 3 3 4 5 3 3 3 2 2 2 2 1 1 2 2 2 4 5 5 5 5 4 5 5 4 7 9 8 11 12 11 13 14 12 12 13 14 15 16 15 15 16 17 18 18 19 21 20 20 20 19 18 18 19 18 17 17 16 15 16 17 15 15 16 16 16 17 16 15 16 15 14 14 14 14 13 13 13 13 12
6 4 2 1 2 2 2 3 4 4 4 3 3 3 3 2 2 3 3 1 1 2 3 2 2 5 5 6 6 4 5 6 5 6 9 9 11 13 12 12 14 12 12 13 13 13 14 16 16 16 16 17 18 20 22 21 20 20 18 18 19 19 17 17 17 16 16 16 16 16 16 16 16 17 17 16 15 15 15 14 14 14 14 13 13 13 13 12
5 4 1 1 2 1 3 3 4 4 3 3 3 3 3 2 2 3 3 2 1 2 3 3 2 3 5 6 7 5 5 7 7 6 8 10 11 12 11 11 13 13 13 13 13 12 13 15 16 16 17 18 19 21 21 21 21 21 20 19 19 19 18 17 16 15 16 17 17 18 17 16 17 17 18 18 17 16 15 15 15 13 13 13 13 13 14 13
4 3 1 2 1 1 2 3 3 3 3 3 3 3 3 3 3 3 3 2 1 1 2 3 3 3 4 6 7 7 6 6 7 7 7 8 10 11 11 10 11 13 14 14 13 12 13 14 15 17 18 18 19 19 19 19 20 20 20 18 18 19 19 19 18 17 16 17 17 16 14 15 17 18 18 18 18 18 16 15 15 14 13 13 13 13 13 14
4 3 2 2 1 1 2 3 3 2 2 2 3 3 3 3 3 2 2 2 1 1 1 3 3 3 4 6 6 7 7 6 7 8 7 7 9 10 10 10 10 12 14 14 13 12 13 13 13 15 17 17 17 17 16 17 18 18 18 16 15 18 19 19 19 19 17 17 18 16 14 16 18 18 19 18 18 19 17 14 15 16 15 14 13 13 13 13
4 3 2 2 0 2 2 2 2 1 1 2 3 3 3 3 3 2 1 1 1 2 1 2 3 4 5 6 5 6 7 7 6 7 7 7 8 8 9 9 10 12 14 15 13 12 12 13 13 14 15 14 14 14 15 17 18 17 17 15 14 17 19 17 18 18 16 17 19 17 16 18 19 19 19 18 17 18 17 14 14 15 15 15 14 14 14 14
3 2 1 2 1 1 0 1 1 0 1 3 3 3 3 3 3 2 0 1 0 2 1 2 3 4 4 6 5 5 5 7 7 7 7 6 7 7 7 8 10 13 15 15 15 14 12 12 13 14 15 15 15 15 15 16 18 17 15 15 14 16 18 18 18 18 17 18 19 18 17 19 19 20 19 18 18 18 17 15 14 13 14 15 14 15 15 15
2 1 2 2 2 1 2 2 1 1 1 2 3 2 2 3 3 3 1 1 1 1 1 2 3 3 3 4 6 5 4 6 7 7 7 5 6 8 7 7 9 11 13 13 13 14 12 11 12 14 16 16 16 16 15 16 17 16 15 14 15 15 17 18 18 19 20 20 18 18 21 22 21 22 22 20 19 17 17 16 15 13 13 13 13 14 15 15
2 1 1 1 1 1 2 1 3 2 1 2 2 2 2 2 3 3 2 1 1 0 1 2 2 3 4 5 6 5 4 5 5 6 6 5 6 7 6 6 8 9 12 12 13 15 14 11 11 12 14 16 16 15 14 13 15 15 14 14 14 14 16 18 18 19 22 20 18 20 24 24 24 23 23 22 20 18 17 17 16 14 13 13 12 13 14 15
2 2 1 1 2 2 1 0 2 3 2 2 2 3 3 4 4 3 3 2 1 0 1 3 3 3 3 5 7 6 5 5 5 5 6 4 5 5 5 6 7 8 11 14 14 15 15 12 11 11 12 13 14 13 12 12 13 13 13 13 13 14 15 17 18 19 21 19 20 24 26 25 25 24 23 23 21 19 18 17 16 14 13 13 13 13 13 14
3 3 3 2 3 4 3 2 1 2 2 2 1 2 3 3 3 3 3 3 1 1 1 2 2 2 2 4 6 6 6 6 6 6 6 5 5 5 5 6 7 7 10 14 14 15 16 14 13 12 11 11 11 12 11 11 12 11 11 11 12 14 15 17 18 18 18 19 21 25 24 23 23 24 24 23 22 21 19 17 15 14 13 13 13 12 12 13
3 3 4 4 4 4 4 3 1 0 1 1 1 0 1 2 2 2 3 4 2 1 0 2 2 1 1 2 4 6 6 7 7 6 6 5 5 6 6 7 9 8 9 13 15 15 15 15 15 14 12 11 11 11 10 11 12 11 11 10 10 12 14 16 17 17 17 19 22 24 23 22 22 23 23 23 22 21 19 17 15 14 13 13 12 11 12 13
4 4 4 4 5 4 3 3 2 1 1 1 1 1 1 1 2 2 2 3 4 3 2 1 2 2 2 1 3 5 5 5 6 6 5 6 6 6 7 8 9 8 9 12 15 16 15 15 15 14 13 12 11 10 10 11 11 11 12 12 11 12 14 16 17 19 19 21 23 23 23 22 22 23 22 22 23 22 20 18 16 13 12 12 11 11 11 12
4 4 3 3 5 4 3 3 2 2 3 3 2 1 1 0 1 2 2 2 4 4 3 3 2 2 3 2 3 6 6 6 6 6 6 6 6 5 6 7 7 8 9 10 13 16 16 15 15 14 14 14 13 11 11 11 11 12 14 16 15 13 13 15 17 18 20 21 22 23 23 22 22 23 22 22 23 22 20 18 16 15 13 12 11 12 12 12
Wind_Direction
323 320 317 314 311 308 305 302 299 297 294 290 286 283 280 278 277 276 274 272 270 269 266 262 259 258 254 250 247 246 243 239 236 230 226 225 220 215 208 203 202 200 199 198 198 198 197 201 202 200 202 205 205 198 192 182 196 200 180 180 164 166 166 160 157 157 155 155 157 156 153 146 149 159 148 133 129 133 136 135 136 131 132 139 141 143 142 142
323 320 318 314 311 308 305 302 299 296 293 291 287 283 279 276 275 273 272 270 269 267 265 262 258 256 254 251 247 245 243 238 236 233 228 223 216 212 208 205 202 199 199 198 198 197 194 198 198 198 202 209 206 192 190 177 180 237 206 186 170 168 166 161 160 160 157 158 157 155 155 151 154 160 152 139 133 133 133 135 135 133 135 139 143 145 144 144
322 320 317 315 311 308 304 301 298 296 293 290 288 284 279 276 273 271 270 268 267 266 264 262 258 255 252 250 248 244 242 238 234 230 226 220 213 210 208 206 203 199 200 199 198 196 193 194 194 196 202 209 202 186 190 183 187 230 187 193 180 169 166 166 168 166 161 159 156 155 157 154 157 163 154 142 135 137 140 141 140 140 142 144 146 147 146 146
323 320 317 315 312 308 304 300 297 294 292 290 288 284 279 276 273 270 268 266 265 264 262 260 257 254 250 248 247 244 238 234 228 222 221 216 210 208 207 206 202 199 201 200 198 198 196 197 196 199 202 206 199 186 190 186 188 183 168 184 182 173 170 171 170 166 163 160 158 156 155 155 160 160 153 144 136 142 148 147 145 145 147 146 146 148 148 147
323 320 318 316 312 309 305 302 297 293 291 289 287 284 280 277 273 270 267 264 262 262 260 258 255 252 248 245 243 241 233 227 223 219 220 214 207 206 206 205 202 200 201 200 200 200 201 203 204 206 205 201 192 188 194 187 183 168 166 168 174 175 172 173 169 165 168 163 158 156 153 155 155 151 153 149 140 149 151 148 148 147 148 146 146 148 149 148
321 319 318 316 313 309 305 303 299 294 290 288 286 283 280 277 274 271 267 263 261 259 258 255 253 249 246 243 239 235 227 223 221 218 218 213 207 205 204 204 202 201 201 200 201 201 202 205 208 210 206 197 191 196 198 187 185 174 174 161 165 173 168 171 170 167 172 166 159 157 153 153 150 149 158 155 147 153 147 145 147 147 149 147 146 147 148 149
321 320 318 316 312 309 306 303 300 295 291 287 284 281 279 276 274 271 267 263 260 257 255 253 250 246 243 241 235 231 228 225 221 217 216 211 207 205 203 202 201 201 201 200 201 201 202 205 209 209 205 200 196 201 199 191 197 195 182 173 163 169 166 166 169 169 171 169 164 159 154 153 150 148 158 162 157 151 145 143 145 147 150 150 148 148 149 150
323 321 319 316 313 309 306 303 300 296 292 288 284 280 277 275 273 270 266 262 259 256 252 249 246 242 240 237 232 230 229 225 220 216 212 208 207 205 203 203 202 201 201 200 200 201 202 206 208 206 204 204 203 204 201 197 207 212 189 180 169 167 171 168 167 167 167 173 168 157 151 150 149 149 157 164 154 148 146 145 146 149 152 152 151 151 152 153
323 321 318 316 313 310 307 303 299 296 293 289 284 279 275 274 272 269 266 262 258 255 250 245 242 238 235 233 230 229 227 221 217 213 208 208 209 207 205 204 203 201 201 201 200 200 203 205 204 203 204 208 213 209 200 200 212 209 183 178 176 168 172 170 171 170 168 178 172 154 147 148 151 152 155 158 152 148 148 148 150 152 153 154 154 154 154 156
321 319 317 315 313 310 308 304 300 296 292 288 284 279 275 273 271 268 265 262 257 252 248 242 237 234 232 230 226 226 223 217 215 213 210 211 210 208 208 206 203 200 200 200 199 200 202 202 199 204 210 211 217 210 202 208 212 193 176 179 180 171 170 167 174 180 171 175 171 155 149 151 155 157 154 155 152 150 150 150 153 153 153 154 155 155 155 157
320 318 316 314 312 310 308 305 300 296 292 287 283 278 275 273 270 267 264 261 255 250 244 239 233 230 230 229 225 223 220 216 216 215 212 211 210 209 209 206 203 200 199 198 198 200 202 202 202 208 211 211 217 212 206 208 201 188 184 184 173 168 170 161 174 187 176 172 167 152 147 150 157 159 153 154 154 151 151 152 155 155 153 153 155 156 157 158
320 318 316 315 313 311 308 305 301 296 291 287 282 277 274 272 269 266 263 259 253 247 240 234 228 227 229 229 226 221 217 214 215 214 214 213 211 210 208 205 203 200 198 197 198 200 202 204 207 210 212 214 217 212 207 201 193 191 190 184 167 166 173 159 172 186 179 173 166 153 147 153 161 161 152 154 157 154 153 155 156 156 154 153 155 158 159 161
320 319 317 316 314 311 309 305 301 296 291 286 282 277 273 271 268 265 261 256 250 243 236 230 225 226 226 226 223 218 217 217 216 215 215 215 211 208 206 204 203 200 198 198 199 202 204 207 210 213 216 217 213 208 208 202 194 193 191 184 172 174 185 176 165 174 174 172 172 164 158 163 170 169 157 155 162 159 155 157 158 157 157 156 159 162 163 162
321 320 318 317 315 312 309 305 300 295 290 285 281 277 273 270 267 263 257 252 247 239 232 225 224 225 225 225 223 220 222 220 218 216 213 211 206 204 204 203 202 200 199 201 203 206 209 212 214 215 215 213 209 204 205 202 197 194 189 190 185 184 189 184 174 177 178 178 183 179 169 171 176 173 164 161 167 166 159 160 160 159 160 160 163 166 163 162
322 321 320 318 316 313 309 305 300 295 289 284 281 277 272 268 264 259 252 248 243 234 226 222 224 226 227 228 224 222 222 216 215 213 209 206 202 202 202 201 201 200 201 204 206 208 211 214 214 212 210 209 206 200 201 203 204 201 193 195 199 196 190 190 197 193 191 189 191 187 175 175 178 176 171 167 171 170 163 163 164 163 163 164 167 167 163 162
323 322 321 320 317 314 310 306 301 296 290 284 281 277 270 265 260 253 248 243 238 229 222 222 223 224 227 226 222 221 218 212 212 210 207 204 200 201 200 199 200 200 203 206 207 210 213 214 210 207 205 206 203 197 201 203 205 211 204 196 199 197 193 197 202 199 202 196 191 189 179 176 179 179 175 169 171 173 168 166 167 166 166 168 168 165 164 164
324 324 322 321 319 316 312 308 303 297 291 286 281 275 267 263 256 249 244 238 234 228 223 223 221 223 224 222 220 219 214 211 210 206 204 204 200 199 197 198 199 199 204 208 210 212 213 210 205 203 204 202 201 198 203 205 203 209 206 198 199 198 197 199 199 200 208 200 185 182 179 176 178 177 174 171 172 175 172 170 169 168 168 169 168 165 166 166
325 324 323 322 321 319 315 310 305 300 295 289 282 273 266 263 255 247 241 235 232 228 226 222 217 218 219 218 219 218 214 210 208 205 203 202 200 197 197 200 200 200 204 208 210 210 208 207 202 203 206 203 202 200 202 206 202 200 199 198 197 199 204 204 201 199 201 196 182 176 175 177 178 174 174 176 175 175 176 173 169 170 171 170 169 166 167 167
326 325 324 323 323 321 318 314 309 305 300 293 284 274 267 263 255 246 239 233 229 226 225 218 211 212 215 217 218 215 212 207 206 205 203 202 201 200 199 200 200 200 203 205 208 207 204 205 204 204 206 204 203 200 199 206 206 199 199 199 195 198 210 210 205 199 194 190 184 181 177 178 180 176 176 180 177 174 175 174 170 172 174 171 170 169 168 166
327 326 326 326 325 323 320 316 313 311 305 297 286 277 269 263 256 249 242 235 231 228 226 217 211 216 221 221 217 213 209 205 204 205 203 203 201 202 202 201 201 201 202 203 206 208 204 204 207 206 205 204 204 200 198 206 210 199 198 201 199 200 207 208 205 200 197 194 190 187 181 181 183 180 180 182 179 176 174 173 172 174 176 173 170 171 169 167
328 328 328 328 328 325 322 318 316 313 307 297 287 279 271 263 260 259 251 241 235 230 228 220 213 220 225 223 219 215 209 205 205 205 203 202 199 201 203 202 202 204 205 203 204 207 204 204 209 208 205 204 204 202 202 205 205 200 200 201 201 203 203 203 202 200 204 202 192 189 185 185 186 181 183 184 180 179 177 176 175 176 178 175 173 173 171 170
330 330 330 331 329 326 323 320 318 315 310 302 293 284 274 267 264 264 257 246 239 230 224 221 217 222 226 225 223 216 209 205 207 207 204 200 200 202 204 203 203 206 207 203 203 206 207 209 211 208 206 206 205 205 207 207 204 206 208 203 202 203 198 201 203 197 202 205 197 192 187 186 187 184 186 187 183 182 182 181 179 178 179 176 176 176 172 171
332 332 333 332 330 326 323 323 324 322 318 309 299 287 278 276 272 267 258 244 238 229 219 216 216 218 222 226 220 211 206 205 206 207 204 200 200 201 202 202 203 205 206 203 202 204 207 211 211 208 205 205 206 206 207 208 207 209 209 206 206 202 199 206 204 194 194 199 195 191 190 191 192 190 190 190 189 186 184 185 182 181 181 178 179 179 174 171
334 334 334 332 331 327 323 325 326 326 322 313 302 290 284 283 275 264 251 232 227 224 214 212 213 213 219 221 207 200 202 206 207 205 202 200 199 200 201 202 202 205 206 204 203 204 208 209 207 207 205 203 206 208 207 207 208 209 208 208 206 203 205 202 189 186 190 195 191 186 189 196 196 194 194 193 193 191 187 189 185 182 184 180 179 181 179 176
336 335 335 334 334 329 325 325 324 323 322 315 306 303 299 286 266 250 232 221 222 218 211 210 210 212 217 208 196 199 205 208 207 203 201 200 199 198 200 201 201 205 207 205 204 206 210 210 204 205 205 202 205 208 208 206 207 210 211 211 206 201 199 184 175 178 185 192 194 190 188 196 197 196 197 195 195 194 193 195 191 185 187 183 181 183 183 181
337 337 337 337 337 334 330 326 322 323 322 316 313 322 321 287 249 223 201 208 215 207 204 204 205 208 209 199 195 201 206 208 206 199 199 200 199 197 199 200 201 204 204 203 207 208 209 209 204 204 205 202 204 208 208 205 206 211 212 210 203 197 189 181 179 180 185 189 189 192 193 194 196 197 198 196 196 198 197 199 196 191 192 188 184 185 185 184
338 339 340 340 341 341 338 330 328 329 327 324 323 331 334 300 212 185 181 190 200 198 197 199 201 205 204 199 196 198 204 208 203 198 199 199 199 199 200 201 201 203 203 202 208 210 207 207 205 204 205 204 204 207 205 202 205 213 212 203 197 195 191 188 186 182 190 191 184 194 200 193 195 197 199 198 197 201 201 199 198 193 194 194 188 187 187 186
339 340 341 342 343 344 341 336 338 340 334 330 330 333 348 25 36 128 156 163 179 189 191 193 196 204 207 203 201 202 202 201 197 199 200 197 198 199 200 202 201 204 206 205 209 211 207 206 203 203 205 206 206 205 202 199 205 214 208 195 193 195 193 190 189 190 200 195 190 201 202 192 198 199 199 201 200 201 202 200 198 195 196 198 193 190 189 189
339 340 342 343 344 345 345 343 345 346 343 347 355 14 44 33 35 107 142 148 169 191 191 193 199 206 207 203 203 205 200 196 197 198 197 197 199 199 200 202 203 208 209 207 209 211 209 207 203 200 204 207 205 203 200 198 204 207 195 188 191 193 191 190 193 196 202 203 199 202 200 194 202 201 198 200 201 202 202 199 197 197 199 201 199 194 192 191
339 340 342 345 348 351 354 352 352 352 354 6 21 37 30 33 72 106 132 140 166 192 188 194 205 205 198 195 201 203 200 200 198 194 195 198 200 201 202 204 205 209 210 208 210 211 211 210 207 202 203 205 204 202 199 197 200 198 188 187 189 191 193 195 198 196 197 212 208 201 200 198 200 203 199 198 199 197 197 197 196 198 201 203 203 199 195 194
338 340 343 348 353 357 2 8 12 12 14 18 19 25 37 66 90 100 117 126 143 191 191 197 206 202 192 190 195 198 201 204 196 191 198 200 199 202 204 205 206 208 210 211 211 211 211 211 208 203 202 203 202 200 198 197 197 194 191 190 186 190 196 198 203 201 200 216 211 199 200 202 201 204 199 196 194 189 191 195 196 198 201 203 204 201 198 198
337 339 344 349 353 358 5 17 20 18 20 16 13 39 75 81 80 90 104 100 88 162 194 198 206 207 195 188 190 193 197 198 192 193 200 200 200 203 203 203 202 204 208 208 209 212 212 210 207 203 202 200 196 197 200 200 197 192 191 189 186 192 198 199 205 207 209 219 211 194 194 204 210 206 195 192 190 186 189 192 192 194 198 202 204 203 202 201
335 338 344 347 350 358 4 15 20 20 20 17 28 65 85 81 78 80 68 64 70 88 191 191 200 201 187 183 188 190 192 194 193 196 201 199 200 204 205 204 198 196 203 207 211 212 210 210 206 201 202 199 192 194 199 201 198 194 193 193 193 198 202 203 205 207 212 217 205 190 192 205 210 202 192 188 185 184 187 189 191 193 196 200 202 201 201 201
334 337 345 348 350 354 359 15 29 34 35 38 57 76 73 67 65 48 35 48 44 339 238 185 178 179 178 183 188 186 190 199 198 196 198 198 201 205 206 205 200 198 203 210 213 205 200 206 205 201 203 201 193 194 197 197 198 199 199 198 199 203 205 203 202 206 208 200 190 189 197 205 202 197 194 189 184 184 185 186 190 195 198 199 200 201 201 201
337 340 346 351 354 357 6 23 37 48 49 54 68 74 65 48 30 23 21 39 33 5 262 158 157 169 176 184 188 189 195 203 200 194 192 190 194 199 197 197 201 201 201 205 208 202 197 202 205 202 202 198 195 198 197 195 200 204 202 199 202 207 207 204 204 204 199 193 193 195 200 205 202 199 198 194 191 189 186 184 186 195 200 198 198 200 201 200
343 347 349 353 357 11 32 38 50 62 63 64 64 60 51 20 7 15 9 23 20 12 111 128 152 166 172 182 191 201 207 203 191 187 188 184 182 186 186 186 192 194 194 197 201 201 198 201 205 202 199 197 196 199 198 195 199 205 203 202 206 209 205 203 205 200 191 197 204 200 198 199 198 199 201 201 198 193 190 187 184 187 192 192 194 196 198 200
348 351 349 351 359 18 43 52 59 63 62 64 57 38 19 2 357 335 279 5 9 13 126 122 158 162 162 180 191 195 200 197 187 186 190 185 180 184 187 186 188 192 195 196 197 197 195 200 207 203 198 199 198 197 199 198 196 198 203 206 209 208 204 201 199 196 197 204 206 202 199 196 196 201 203 205 202 197 195 192 186 183 182 183 188 192 197 201
353 351 343 349 9 30 57 62 59 64 63 57 39 10 9 351 314 311 311 357 25 59 129 150 179 172 154 167 181 168 169 178 187 191 186 179 183 189 191 191 193 200 202 197 196 197 194 196 207 205 198 201 202 197 201 206 202 198 200 205 206 204 204 203 200 198 201 205 206 205 203 200 203 205 202 203 202 197 196 193 189 186 182 180 182 186 193 196
355 355 347 360 23 35 66 67 60 63 55 40 15 357 3 345 315 344 355 338 96 108 134 152 180 183 169 168 180 178 165 161 166 178 176 177 187 192 192 194 199 208 207 197 194 200 197 192 202 206 199 199 203 200 201 207 209 205 203 207 207 204 202 203 204 202 200 205 208 208 207 207 209 208 201 199 198 196 195 194 192 190 188 189 187 187 191 193
356 0 340 342 15 36 91 76 53 50 42 25 9 350 345 346 326 334 351 351 194 164 159 157 166 183 188 185 184 184 180 178 175 177 182 187 191 194 199 199 203 211 208 196 192 200 201 194 198 206 200 196 200 202 201 203 205 207 207 209 209 208 208 207 209 209 202 204 209 209 212 216 212 207 199 193 195 200 198 193 193 192 191 193 193 192 194 193
1 6 327 329 19 86 115 73 36 39 38 15 8 2 355 4 340 327 349 15 141 173 174 176 168 177 194 197 190 183 178 186 195 197 196 198 194 196 203 203 206 211 204 197 196 200 200 195 198 204 199 197 201 203 201 201 202 203 204 208 209 210 210 209 212 215 207 204 206 206 212 216 210 203 198 195 197 201 200 194 193 192 189 190 191 192 196 195
4 4 313 336 5 143 104 50 14 32 37 6 1 9 16 20 2 338 344 9 78 173 199 199 184 174 187 190 187 185 176 180 196 199 195 195 195 201 210 209 208 204 197 199 204 202 196 194 199 206 203 202 205 204 203 204 203 202 204 208 210 210 209 208 211 213 207 205 204 203 207 209 206 203 200 200 200 196 194 195 195 193 189 187 188 190 193 195
350 327 309 332 304 169 89 25 357 17 19 357 2 3 12 21 12 1 9 27 56 127 206 196 182 178 186 181 178 185 183 181 197 198 190 190 197 207 214 213 210 202 195 198 204 202 197 195 199 205 205 204 206 207 209 209 203 203 207 210 211 210 208 207 209 207 205 206 203 203 208 206 203 203 198 200 203 196 190 191 193 193 193 190 190 191 192 194
333 315 323 357 306 149 87 23 1 16 352 3 17 16 28 30 18 24 47 45 77 110 145 181 178 175 185 183 174 181 184 182 193 196 191 195 203 210 214 211 208 203 198 198 201 200 197 194 195 199 200 201 204 207 214 213 206 204 208 212 214 210 205 205 209 207 208 211 205 202 208 204 200 201 198 200 202 194 191 192 190 191 195 195 194 194 194 195
332 315 299 322 293 187 181 326 352 27 8 27 32 41 48 16 3 31 46 285 124 113 150 198 189 172 175 180 176 177 179 179 187 193 193 200 209 214 215 209 204 202 200 201 201 197 191 189 191 193 194 195 196 202 209 210 207 206 208 209 211 209 205 205 207 206 206 208 205 202 201 199 197 197 197 201 200 192 191 192 189 188 192 197 198 197 197 196
328 280 282 305 311 265 261 294 11 7 6 48 39 40 49 3 359 30 27 285 189 132 180 204 195 182 181 181 178 176 174 174 181 187 188 193 205 210 211 206 205 203 199 197 196 192 186 185 187 186 188 191 193 201 208 204 201 202 205 205 206 206 203 201 204 207 203 201 205 204 194 191 197 197 195 199 201 195 192 191 191 191 190 193 197 197 197 198
302 253 245 254 274 299 293 0 43 30 21 86 60 17 25 31 30 35 29 39 141 168 226 216 201 191 194 189 184 186 186 178 174 178 181 185 197 204 204 202 205 204 197 192 192 189 183 185 191 189 191 195 197 202 204 196 193 195 197 201 204 202 200 201 203 205 201 199 205 203 192 189 196 198 195 198 200 197 195 193 192 192 190 191 193 192 194 197
288 264 253 215 209 218 225 353 44 42 53 87 83 27 39 65 63 43 19 9 34 46 210 216 217 198 188 185 188 194 193 182 179 182 184 186 194 199 205 206 205 203 198 195 194 191 186 187 194 195 195 199 200 200 195 187 189 191 189 194 200 199 199 202 202 201 201 202 203 200 194 192 195 197 196 197 197 193 190 189 189 190 193 195 192 188 190 194
286 270 267 262 226 220 237 285 328 42 59 87 98 44 56 76 63 37 27 25 11 359 156 186 212 213 179 175 183 190 191 189 194 201 197 194 196 197 199 206 207 203 199 198 198 196 192 194 200 198 197 203 205 202 196 188 190 193 192 197 203 202 200 200 201 203 204 202 197 194 194 195 196 197 197 195 192 188 186 188 190 191 192 191 188 187 189 191
285 269 265 266 248 241 265 301 298 261 353 34 142 51 55 70 38 17 32 48 48 360 325 173 181 191 170 160 168 182 196 195 194 201 202 196 204 204 198 203 207 207 204 202 204 202 197 202 209 202 199 209 210 206 204 198 194 196 201 206 208 205 203 203 203 203 200 195 192 190 191 195 199 199 196 192 190 190 191 193 193 189 185 183 182 184 188 191
269 251 250 247 241 246 264 279 258 217 260 267 200 242 276 76 40 24 27 51 70 62 38 148 175 198 208 180 171 188 208 208 201 209 210 200 203 207 204 205 206 205 208 207 207 207 203 205 211 205 204 214 216 213 216 210 200 203 212 216 214 208 208 210 210 207 199 192 190 191 193 198 200 198 195 193 192 194 196 196 194 191 186 179 178 182 187 192
272 245 242 225 224 233 241 257 257 203 213 234 221 210 236 223 37 49 53 35 51 59 55 70 119 203 218 222 216 214 221 225 225 232 229 216 212 210 209 210 203 199 206 208 209 211 209 208 211 210 210 219 224 221 219 213 207 213 219 219 217 215 213 211 209 206 201 195 195 198 201 201 199 196 195 196 197 198 200 198 193 192 189 182 179 183 187 192